Location: Diamond Heights Village
(37.7458°N, 122.4416°W)
Time: 16:10:46
(UTC+00:00)

Cosmos 1153 Rocket - Pass Details

Date: 13 June 2024
Orbit: 953 x 1005 km, 82.9° (Epoch: 23 July)

Event Time Altitude Azimuth Distance (km) Brightness Sun altitude
Rises 12:14:22 0° 188° (S) 3,636 7.1 -6.3°
Reaches altitude 10° 12:16:52 10° 190° (S) 2,687 6.4 -5.9°
Maximum altitude 12:23:01 80° 276° (W) 975 4.5 -4.9°
Drops below altitude 10° 12:29:10 10° 4° (N) 2,688 7.4 -3.9°
Sets 12:31:40 0° 6° (N) 3,637 8.1 -3.5°
